����������;��������(kWh)
2017-06-19 00:00;88,45
2017-06-19 00:15;90,65
2017-06-19 00:30;89,6
2017-06-19 00:45;96,05
2017-06-19 01:00;99,45
2017-06-19 01:15;98,05
2017-06-19 01:30;89,5
2017-06-19 01:45;92,5
2017-06-19 02:00;92,85
2017-06-19 02:15;90,95
2017-06-19 02:30;87,15
2017-06-19 02:45;90,9
2017-06-19 03:00;92,05
2017-06-19 03:15;86,5
2017-06-19 03:30;89
2017-06-19 03:45;89,6
2017-06-19 04:00;87,7
2017-06-19 04:15;86,05
2017-06-19 04:30;87,3
2017-06-19 04:45;86,45
2017-06-19 05:00;88,4
2017-06-19 05:15;90,6
2017-06-19 05:30;93,45
2017-06-19 05:45;99
2017-06-19 06:00;97,3
2017-06-19 06:15;93,65
2017-06-19 06:30;91,3
2017-06-19 06:45;90,75
2017-06-19 07:00;88,15
2017-06-19 07:15;95,25
2017-06-19 07:30;147,05
2017-06-19 07:45;110,8
2017-06-19 08:00;110,4
2017-06-19 08:15;126,7
2017-06-19 08:30;118,9
2017-06-19 08:45;118,9
2017-06-19 09:00;132,4
2017-06-19 09:15;129,9
2017-06-19 09:30;148,6
2017-06-19 09:45;153,35
2017-06-19 10:00;147,5
2017-06-19 10:15;164,05
2017-06-19 10:30;169,9
2017-06-19 10:45;209,8
2017-06-19 11:00;229,75
2017-06-19 11:15;206,15
2017-06-19 11:30;211
2017-06-19 11:45;216,35
2017-06-19 12:00;217,25
2017-06-19 12:15;218,9
2017-06-19 12:30;222,65
2017-06-19 12:45;216,45
2017-06-19 13:00;215,7
2017-06-19 13:15;227,5
2017-06-19 13:30;221,45
2017-06-19 13:45;226,1
2017-06-19 14:00;227,85
2017-06-19 14:15;217,1
2017-06-19 14:30;216,55
2017-06-19 14:45;215,5
2017-06-19 15:00;206,65
2017-06-19 15:15;201,2
2017-06-19 15:30;200,55
2017-06-19 15:45;193,95
2017-06-19 16:00;191,15
2017-06-19 16:15;164,75
2017-06-19 16:30;163,5
2017-06-19 16:45;165,65
2017-06-19 17:00;156
2017-06-19 17:15;150,35
2017-06-19 17:30;148,15
2017-06-19 17:45;149,25
2017-06-19 18:00;150,85
2017-06-19 18:15;152,25
2017-06-19 18:30;140
2017-06-19 18:45;141,25
2017-06-19 19:00;142,75
2017-06-19 19:15;133,05
2017-06-19 19:30;129,2
2017-06-19 19:45;130,3
2017-06-19 20:00;119,45
2017-06-19 20:15;123,9
2017-06-19 20:30;119,7
2017-06-19 20:45;119,55
2017-06-19 21:00;123,05
2017-06-19 21:15;120
2017-06-19 21:30;116,6
2017-06-19 21:45;114,55
2017-06-19 22:00;109,95
2017-06-19 22:15;108,35
2017-06-19 22:30;107,05
2017-06-19 22:45;106,05
2017-06-19 23:00;102,3
2017-06-19 23:15;103,75
2017-06-19 23:30;101,75
2017-06-19 23:45;98,45
2017-06-20 00:00;96
2017-06-20 00:15;98,65
2017-06-20 00:30;96,75
2017-06-20 00:45;96,95
2017-06-20 01:00;101,95
2017-06-20 01:15;99,65
2017-06-20 01:30;97,75
2017-06-20 01:45;97,8
2017-06-20 02:00;97,25
2017-06-20 02:15;96,8
2017-06-20 02:30;98,3
2017-06-20 02:45;99,2
2017-06-20 03:00;93,05
2017-06-20 03:15;90,4
2017-06-20 03:30;93,1
2017-06-20 03:45;90,85
2017-06-20 04:00;90,75
2017-06-20 04:15;91,95
2017-06-20 04:30;91,65
2017-06-20 04:45;89,45
2017-06-20 05:00;87,65
2017-06-20 05:15;92,55
2017-06-20 05:30;93,5
2017-06-20 05:45;99,15
2017-06-20 06:00;95,9
2017-06-20 06:15;90,1
2017-06-20 06:30;95,15
2017-06-20 06:45;98,85
2017-06-20 07:00;90,25
2017-06-20 07:15;93,05
2017-06-20 07:30;142,25
2017-06-20 07:45;101,1
2017-06-20 08:00;103,75
2017-06-20 08:15;108,7
2017-06-20 08:30;103,5
2017-06-20 08:45;116,25
2017-06-20 09:00;122,2
2017-06-20 09:15;124,05
2017-06-20 09:30;135,2
2017-06-20 09:45;137,5
2017-06-20 10:00;136,85
2017-06-20 10:15;157,45
2017-06-20 10:30;157,05
2017-06-20 10:45;205,4
2017-06-20 11:00;209,3
2017-06-20 11:15;203,9
2017-06-20 11:30;191,15
2017-06-20 11:45;196,05
2017-06-20 12:00;201,45
2017-06-20 12:15;200,95
2017-06-20 12:30;201,15
2017-06-20 12:45;197,25
2017-06-20 13:00;204,55
2017-06-20 13:15;213,45
2017-06-20 13:30;207
2017-06-20 13:45;202,8
2017-06-20 14:00;198,9
2017-06-20 14:15;205,1
2017-06-20 14:30;205,85
2017-06-20 14:45;205
2017-06-20 15:00;194,6
2017-06-20 15:15;192,15
2017-06-20 15:30;192,75
2017-06-20 15:45;190,75
2017-06-20 16:00;185,5
2017-06-20 16:15;163,7
2017-06-20 16:30;164,65
2017-06-20 16:45;160,25
2017-06-20 17:00;152,85
2017-06-20 17:15;150,5
2017-06-20 17:30;148,45
2017-06-20 17:45;142,25
2017-06-20 18:00;137,5
2017-06-20 18:15;132,7
2017-06-20 18:30;132,2
2017-06-20 18:45;128
2017-06-20 19:00;123,1
2017-06-20 19:15;116,85
2017-06-20 19:30;118,85
2017-06-20 19:45;123,95
2017-06-20 20:00;117,75
2017-06-20 20:15;112,3
2017-06-20 20:30;113,1
2017-06-20 20:45;113,4
2017-06-20 21:00;119,5
2017-06-20 21:15;119,25
2017-06-20 21:30;116,85
2017-06-20 21:45;114
2017-06-20 22:00;107,9
2017-06-20 22:15;107,1
2017-06-20 22:30;105,8
2017-06-20 22:45;102,8
2017-06-20 23:00;102,35
2017-06-20 23:15;103,35
2017-06-20 23:30;98,25
2017-06-20 23:45;103,35
2017-06-21 00:00;94,35
2017-06-21 00:15;90,25
2017-06-21 00:30;90,95
2017-06-21 00:45;88,85
2017-06-21 01:00;88,1
2017-06-21 01:15;87,6
2017-06-21 01:30;86,5
2017-06-21 01:45;84,45
2017-06-21 02:00;86,3
2017-06-21 02:15;85,8
2017-06-21 02:30;84,45
2017-06-21 02:45;83,6
2017-06-21 03:00;86,95
2017-06-21 03:15;84,15
2017-06-21 03:30;83,65
2017-06-21 03:45;84,55
2017-06-21 04:00;83,3
2017-06-21 04:15;83,55
2017-06-21 04:30;85,65
2017-06-21 04:45;82,5
2017-06-21 05:00;85,95
2017-06-21 05:15;93,9
2017-06-21 05:30;91,85
2017-06-21 05:45;96,75
2017-06-21 06:00;95,25
2017-06-21 06:15;94,3
2017-06-21 06:30;96,3
2017-06-21 06:45;104,8
2017-06-21 07:00;101,2
2017-06-21 07:15;109,35
2017-06-21 07:30;164,35
2017-06-21 07:45;122,8
2017-06-21 08:00;125,2
2017-06-21 08:15;154,8
2017-06-21 08:30;161,45
2017-06-21 08:45;143,35
2017-06-21 09:00;147,15
2017-06-21 09:15;160,6
2017-06-21 09:30;165,65
2017-06-21 09:45;163,8
2017-06-21 10:00;163,1
2017-06-21 10:15;170,1
2017-06-21 10:30;180,9
2017-06-21 10:45;192,35
2017-06-21 11:00;201,85
2017-06-21 11:15;199,8
2017-06-21 11:30;205
2017-06-21 11:45;208,1
2017-06-21 12:00;206,1
2017-06-21 12:15;203,5
2017-06-21 12:30;205,85
2017-06-21 12:45;211,35
2017-06-21 13:00;209,1
2017-06-21 13:15;214,95
2017-06-21 13:30;221,35
2017-06-21 13:45;218,8
2017-06-21 14:00;212,3
2017-06-21 14:15;210,05
2017-06-21 14:30;211,8
2017-06-21 14:45;212,7
2017-06-21 15:00;209
2017-06-21 15:15;204,2
2017-06-21 15:30;200,05
2017-06-21 15:45;191,3
2017-06-21 16:00;191,7
2017-06-21 16:15;172
2017-06-21 16:30;172,1
2017-06-21 16:45;169,9
2017-06-21 17:00;167,15
2017-06-21 17:15;163,45
2017-06-21 17:30;159,7
2017-06-21 17:45;158,7
2017-06-21 18:00;154,25
2017-06-21 18:15;148,15
2017-06-21 18:30;145,95
2017-06-21 18:45;145,25
2017-06-21 19:00;137,5
2017-06-21 19:15;140
2017-06-21 19:30;139,1
2017-06-21 19:45;135,3
2017-06-21 20:00;125,25
2017-06-21 20:15;124,3
2017-06-21 20:30;120,3
2017-06-21 20:45;123,45
2017-06-21 21:00;125
2017-06-21 21:15;120,35
2017-06-21 21:30;121,05
2017-06-21 21:45;118,3
2017-06-21 22:00;110,5
2017-06-21 22:15;105,4
2017-06-21 22:30;103,55
2017-06-21 22:45;102,65
2017-06-21 23:00;100,5
2017-06-21 23:15;99,3
2017-06-21 23:30;97,7
2017-06-21 23:45;97,55
2017-06-22 00:00;98,05
2017-06-22 00:15;95,1
2017-06-22 00:30;95,95
2017-06-22 00:45;97,2
2017-06-22 01:00;93,9
2017-06-22 01:15;93,85
2017-06-22 01:30;92,65
2017-06-22 01:45;90,7
2017-06-22 02:00;90,6
2017-06-22 02:15;90,65
2017-06-22 02:30;91,1
2017-06-22 02:45;90,35
2017-06-22 03:00;90,2
2017-06-22 03:15;90,6
2017-06-22 03:30;89,95
2017-06-22 03:45;90,25
2017-06-22 04:00;90,2
2017-06-22 04:15;89,6
2017-06-22 04:30;88,4
2017-06-22 04:45;89,05
2017-06-22 05:00;89,75
2017-06-22 05:15;93,5
2017-06-22 05:30;96,85
2017-06-22 05:45;99,7
2017-06-22 06:00;98,95
2017-06-22 06:15;94,05
2017-06-22 06:30;93,35
2017-06-22 06:45;105,7
2017-06-22 07:00;104,55
2017-06-22 07:15;103,9
2017-06-22 07:30;160,25
2017-06-22 07:45;127,2
2017-06-22 08:00;129,2
2017-06-22 08:15;158,75
2017-06-22 08:30;168,1
2017-06-22 08:45;154,9
2017-06-22 09:00;159,15
2017-06-22 09:15;174,95
2017-06-22 09:30;189,3
2017-06-22 09:45;181,7
2017-06-22 10:00;181,95
2017-06-22 10:15;187,95
2017-06-22 10:30;195,45
2017-06-22 10:45;199,55
2017-06-22 11:00;209,1
2017-06-22 11:15;219,15
2017-06-22 11:30;227,9
2017-06-22 11:45;217,65
2017-06-22 12:00;216,6
2017-06-22 12:15;227,65
2017-06-22 12:30;230,6
2017-06-22 12:45;226,75
2017-06-22 13:00;225,6
2017-06-22 13:15;233,9
2017-06-22 13:30;232,3
2017-06-22 13:45;229,9
2017-06-22 14:00;227,4
2017-06-22 14:15;224,05
2017-06-22 14:30;220,15
2017-06-22 14:45;217,15
2017-06-22 15:00;212,35
2017-06-22 15:15;202,95
2017-06-22 15:30;203,1
2017-06-22 15:45;203,35
2017-06-22 16:00;196,75
2017-06-22 16:15;172,9
2017-06-22 16:30;173,9
2017-06-22 16:45;164,95
2017-06-22 17:00;167
2017-06-22 17:15;161,65
2017-06-22 17:30;161,05
2017-06-22 17:45;159,8
2017-06-22 18:00;150,25
2017-06-22 18:15;152,7
2017-06-22 18:30;142,25
2017-06-22 18:45;144,2
2017-06-22 19:00;138,8
2017-06-22 19:15;132,45
2017-06-22 19:30;127,95
2017-06-22 19:45;129,1
2017-06-22 20:00;122
2017-06-22 20:15;119,2
2017-06-22 20:30;120,75
2017-06-22 20:45;121,35
2017-06-22 21:00;123,2
2017-06-22 21:15;118,9
2017-06-22 21:30;117,25
2017-06-22 21:45;113,85
2017-06-22 22:00;109,15
2017-06-22 22:15;107,9
2017-06-22 22:30;105
2017-06-22 22:45;103,55
2017-06-22 23:00;100,7
2017-06-22 23:15;100,1
2017-06-22 23:30;98,8
2017-06-22 23:45;98,2
2017-06-23 00:00;100,3
2017-06-23 00:15;98,95
2017-06-23 00:30;101,15
2017-06-23 00:45;100,35
2017-06-23 01:00;98,15
2017-06-23 01:15;91,8
2017-06-23 01:30;89,65
2017-06-23 01:45;89,1
2017-06-23 02:00;89,4
2017-06-23 02:15;90,05
2017-06-23 02:30;90,2
2017-06-23 02:45;90,6
2017-06-23 03:00;90,35
2017-06-23 03:15;91,15
2017-06-23 03:30;90
2017-06-23 03:45;89,6
2017-06-23 04:00;90,6
2017-06-23 04:15;88,5
2017-06-23 04:30;88,2
2017-06-23 04:45;84,8
2017-06-23 05:00;85,4
2017-06-23 05:15;90,25
2017-06-23 05:30;92,4
2017-06-23 05:45;95,65
2017-06-23 06:00;94,55
2017-06-23 06:15;90,15
2017-06-23 06:30;90,1
2017-06-23 06:45;93,85
2017-06-23 07:00;102
2017-06-23 07:15;96,75
2017-06-23 07:30;149,8
2017-06-23 07:45;112,05
2017-06-23 08:00;118,1
2017-06-23 08:15;159,15
2017-06-23 08:30;165,7
2017-06-23 08:45;151,75
2017-06-23 09:00;153,25
2017-06-23 09:15;169,75
2017-06-23 09:30;158
2017-06-23 09:45;163,55
2017-06-23 10:00;178,65
2017-06-23 10:15;188,6
2017-06-23 10:30;189,45
2017-06-23 10:45;215,6
2017-06-23 11:00;228,3
2017-06-23 11:15;216,4
2017-06-23 11:30;225,75
2017-06-23 11:45;225,45
2017-06-23 12:00;226,15
2017-06-23 12:15;237,45
2017-06-23 12:30;231,2
2017-06-23 12:45;223,9
2017-06-23 13:00;235,85
2017-06-23 13:15;233,8
2017-06-23 13:30;233,7
2017-06-23 13:45;232,65
2017-06-23 14:00;237,8
2017-06-23 14:15;234,45
2017-06-23 14:30;215,95
2017-06-23 14:45;224,3
2017-06-23 15:00;221,35
2017-06-23 15:15;206,85
2017-06-23 15:30;207,85
2017-06-23 15:45;210
2017-06-23 16:00;217
2017-06-23 16:15;194,3
2017-06-23 16:30;187,65
2017-06-23 16:45;178,25
2017-06-23 17:00;176,4
2017-06-23 17:15;170,65
2017-06-23 17:30;165,55
2017-06-23 17:45;164,7
2017-06-23 18:00;165,75
2017-06-23 18:15;158,25
2017-06-23 18:30;161,25
2017-06-23 18:45;156
2017-06-23 19:00;154,1
2017-06-23 19:15;139,95
2017-06-23 19:30;137,45
2017-06-23 19:45;140,6
2017-06-23 20:00;128,8
2017-06-23 20:15;134,7
2017-06-23 20:30;129,85
2017-06-23 20:45;129,1
2017-06-23 21:00;133,2
2017-06-23 21:15;129,1
2017-06-23 21:30;129,85
2017-06-23 21:45;125,1
2017-06-23 22:00;116,55
2017-06-23 22:15;113,9
2017-06-23 22:30;109,9
2017-06-23 22:45;109,65
2017-06-23 23:00;110,2
2017-06-23 23:15;108,95
2017-06-23 23:30;108,1
2017-06-23 23:45;106,55
2017-06-24 00:00;105,9
2017-06-24 00:15;104,8
2017-06-24 00:30;103,55
2017-06-24 00:45;101,75
2017-06-24 01:00;103
2017-06-24 01:15;104,3
2017-06-24 01:30;92,85
2017-06-24 01:45;91
2017-06-24 02:00;92,8
2017-06-24 02:15;90,05
2017-06-24 02:30;90,7
2017-06-24 02:45;90,4
2017-06-24 03:00;89,95
2017-06-24 03:15;89,3
2017-06-24 03:30;88,4
2017-06-24 03:45;90,55
2017-06-24 04:00;89,65
2017-06-24 04:15;89,05
2017-06-24 04:30;87,95
2017-06-24 04:45;87,35
2017-06-24 05:00;90,2
2017-06-24 05:15;92,45
2017-06-24 05:30;93,6
2017-06-24 05:45;96,9
2017-06-24 06:00;97,35
2017-06-24 06:15;91,5
2017-06-24 06:30;91,85
2017-06-24 06:45;91,55
2017-06-24 07:00;90,15
2017-06-24 07:15;89,75
2017-06-24 07:30;89,2
2017-06-24 07:45;88,1
2017-06-24 08:00;92,9
2017-06-24 08:15;95,7
2017-06-24 08:30;97,2
2017-06-24 08:45;95,25
2017-06-24 09:00;94,35
2017-06-24 09:15;94,7
2017-06-24 09:30;96,6
2017-06-24 09:45;94,75
2017-06-24 10:00;98,5
2017-06-24 10:15;101,45
2017-06-24 10:30;104,4
2017-06-24 10:45;105,75
2017-06-24 11:00;103,65
2017-06-24 11:15;106,65
2017-06-24 11:30;111,6
2017-06-24 11:45;115,2
2017-06-24 12:00;113,75
2017-06-24 12:15;111,3
2017-06-24 12:30;108,1
2017-06-24 12:45;109,45
2017-06-24 13:00;110,25
2017-06-24 13:15;120,5
2017-06-24 13:30;118,75
2017-06-24 13:45;117,35
2017-06-24 14:00;115,45
2017-06-24 14:15;113,85
2017-06-24 14:30;115,3
2017-06-24 14:45;111,7
2017-06-24 15:00;113,6
2017-06-24 15:15;116,9
2017-06-24 15:30;112,7
2017-06-24 15:45;111,1
2017-06-24 16:00;110,2
2017-06-24 16:15;115,55
2017-06-24 16:30;113,65
2017-06-24 16:45;114,25
2017-06-24 17:00;114,15
2017-06-24 17:15;117,05
2017-06-24 17:30;117,75
2017-06-24 17:45;120,2
2017-06-24 18:00;122
2017-06-24 18:15;122,1
2017-06-24 18:30;118,1
2017-06-24 18:45;120,55
2017-06-24 19:00;115,8
2017-06-24 19:15;118,25
2017-06-24 19:30;120,8
2017-06-24 19:45;123,85
2017-06-24 20:00;118,25
2017-06-24 20:15;114,75
2017-06-24 20:30;116,8
2017-06-24 20:45;117,45
2017-06-24 21:00;113,9
2017-06-24 21:15;112,8
2017-06-24 21:30;114,2
2017-06-24 21:45;115,05
2017-06-24 22:00;111,2
2017-06-24 22:15;109,15
2017-06-24 22:30;108,25
2017-06-24 22:45;102,65
2017-06-24 23:00;100,6
2017-06-24 23:15;100,4
2017-06-24 23:30;98,8
2017-06-24 23:45;97
2017-06-25 00:00;96
2017-06-25 00:15;95,9
2017-06-25 00:30;94,75
2017-06-25 00:45;98,35
2017-06-25 01:00;96,9
2017-06-25 01:15;96,7
2017-06-25 01:30;93,7
2017-06-25 01:45;97
2017-06-25 02:00;96,55
2017-06-25 02:15;96,65
2017-06-25 02:30;96,6
2017-06-25 02:45;94,45
2017-06-25 03:00;94,05
2017-06-25 03:15;96
2017-06-25 03:30;95
2017-06-25 03:45;95,4
2017-06-25 04:00;95,1
2017-06-25 04:15;93,65
2017-06-25 04:30;95,4
2017-06-25 04:45;95
2017-06-25 05:00;94,35
2017-06-25 05:15;91
2017-06-25 05:30;88,8
2017-06-25 05:45;88,8
2017-06-25 06:00;92,1
2017-06-25 06:15;90,75
2017-06-25 06:30;85,4
2017-06-25 06:45;86,3
2017-06-25 07:00;85,6
2017-06-25 07:15;87,4
2017-06-25 07:30;86,85
2017-06-25 07:45;87,5
2017-06-25 08:00;84,1
2017-06-25 08:15;85,55
2017-06-25 08:30;86,95
2017-06-25 08:45;86,6
2017-06-25 09:00;86,9
2017-06-25 09:15;87,95
2017-06-25 09:30;90,4
2017-06-25 09:45;91,95
2017-06-25 10:00;93,7
2017-06-25 10:15;94,9
2017-06-25 10:30;95,4
2017-06-25 10:45;93,5
2017-06-25 11:00;99,8
2017-06-25 11:15;99
2017-06-25 11:30;99,4
2017-06-25 11:45;101
2017-06-25 12:00;20,8
2017-06-25 12:15;13,3
2017-06-25 12:30;102,95
2017-06-25 12:45;97,85
2017-06-25 13:00;102,95
2017-06-25 13:15;102,95
2017-06-25 13:30;102,3
2017-06-25 13:45;106,35
2017-06-25 14:00;102,5
2017-06-25 14:15;108,05
2017-06-25 14:30;101,2
2017-06-25 14:45;100,4
2017-06-25 15:00;106,75
2017-06-25 15:15;105,2
2017-06-25 15:30;106,75
2017-06-25 15:45;105,45
2017-06-25 16:00;103,8
2017-06-25 16:15;101,7
2017-06-25 16:30;107,5
2017-06-25 16:45;105,35
2017-06-25 17:00;109,5
2017-06-25 17:15;101,2
2017-06-25 17:30;107
2017-06-25 17:45;105,7
2017-06-25 18:00;104,3
2017-06-25 18:15;105,85
2017-06-25 18:30;108,35
2017-06-25 18:45;105,7
2017-06-25 19:00;107,5
2017-06-25 19:15;105,2
2017-06-25 19:30;104,5
2017-06-25 19:45;102
2017-06-25 20:00;104,4
2017-06-25 20:15;107,55
2017-06-25 20:30;107,9
2017-06-25 20:45;110,6
2017-06-25 21:00;110,55
2017-06-25 21:15;108,6
2017-06-25 21:30;106,4
2017-06-25 21:45;108,4
2017-06-25 22:00;106,5
2017-06-25 22:15;104,3
2017-06-25 22:30;102,05
2017-06-25 22:45;101,35
2017-06-25 23:00;98,2
2017-06-25 23:15;98,65
2017-06-25 23:30;97,45
2017-06-25 23:45;95

